GFSSGP_sfc_30mbdewp_057.txt.gz
Dewpoint
69 68 69 67 59 58 52 53 58 57 57 57 55 55 56 59 56 54 65 67 67 67 70 70 73 72 72 73 73 73 73 73 73 73 72 72 71 72 72 71 70 70 71 69 69 69 68 69 70
68 68 67 64 55 51 51 56 56 57 58 56 59 58 58 59 62 64 65 67 66 67 69 69 74 73 72 73 73 73 72 72 72 72 72 72 72 71 72 72 71 70 71 70 70 69 69 69 70
68 67 64 60 55 52 53 56 57 56 58 56 59 61 60 61 63 63 66 66 66 68 70 70 74 73 72 73 72 72 72 73 72 72 72 72 71 71 72 71 70 70 70 70 70 70 70 69 69
67 67 65 56 51 56 57 56 57 57 57 59 60 59 62 64 63 64 67 67 65 68 68 71 73 71 73 73 71 73 73 73 72 72 72 71 71 72 72 71 70 70 70 70 70 70 69 69 70
67 65 55 54 53 56 57 58 60 58 59 59 59 59 61 64 65 66 68 66 66 66 69 70 73 72 72 73 71 72 73 72 72 72 71 71 71 71 70 70 71 69 70 70 70 69 69 69 69
63 61 52 50 52 54 56 60 59 59 59 59 58 59 61 65 66 67 67 66 67 68 67 69 73 72 72 73 71 73 73 73 72 72 72 72 72 71 71 71 71 71 70 70 69 68 69 69 69
59 57 52 51 52 54 57 61 58 58 59 58 59 57 63 64 66 67 67 68 67 67 67 68 71 71 72 73 71 72 73 72 72 71 72 72 72 72 71 71 70 69 69 69 69 69 69 69 70
62 55 51 52 52 52 57 59 60 58 58 60 60 58 59 64 66 67 68 68 67 67 68 68 70 68 68 70 71 72 72 72 72 72 73 72 72 72 71 71 71 70 68 68 68 69 70 70 70
58 54 51 50 51 54 58 58 61 60 59 59 59 59 61 65 66 66 67 67 66 66 67 68 69 70 71 70 70 71 72 72 72 72 72 72 71 70 69 70 70 70 70 69 69 69 70 70 70
59 56 52 51 53 56 58 58 59 59 58 59 60 61 63 65 65 64 65 64 63 66 66 67 69 69 70 69 70 71 70 70 70 71 72 71 71 71 69 70 71 71 71 70 70 69 70 68 66
58 56 56 53 54 59 58 59 59 58 57 59 59 62 63 63 63 62 62 61 62 66 66 68 69 70 70 69 71 70 71 71 71 72 70 71 71 71 69 70 67 67 69 66 67 67 66 67 66
57 58 59 57 55 55 55 57 58 58 58 60 61 62 62 61 62 61 61 62 63 65 67 68 70 70 70 70 70 70 70 70 70 70 69 71 71 71 69 68 67 67 68 69 70 69 69 69 68
56 57 57 57 56 55 55 55 58 58 61 61 61 61 61 60 61 60 61 64 64 65 68 68 70 70 71 71 70 70 70 70 69 70 66 70 70 71 69 69 69 69 69 69 70 68 66 66 67
52 54 55 55 54 53 53 52 57 60 60 60 61 60 60 60 60 60 62 63 65 66 67 68 69 70 71 70 71 70 70 69 69 70 66 69 70 71 68 68 69 70 70 69 69 68 66 65 65
46 47 45 48 50 53 51 50 53 59 60 60 60 60 60 60 60 60 61 63 66 67 67 68 69 69 70 70 70 69 68 68 69 69 70 68 68 70 70 70 70 70 71 70 71 69 68 63 64
30 38 44 47 47 48 49 47 55 59 59 59 59 59 59 59 60 61 62 63 65 66 67 68 67 67 68 68 68 67 67 67 68 69 69 69 70 72 72 70 70 71 70 70 70 69 65 63 63
32 20 36 45 45 49 49 48 57 59 58 58 59 59 59 59 60 62 63 64 64 65 67 67 67 66 67 68 67 67 66 67 68 69 69 71 71 70 71 71 71 72 70 70 69 68 66 63 62
20 23 35 41 45 45 48 48 58 57 57 57 58 58 59 59 59 61 63 64 65 65 67 67 67 67 68 68 69 67 66 67 68 68 69 71 71 71 71 72 71 71 70 70 70 70 68 66 64
28 29 24 40 45 44 44 45 56 58 57 57 57 58 58 58 58 61 62 64 65 66 66 67 67 67 67 66 65 65 65 66 67 69 70 71 71 71 72 71 71 71 69 70 69 67 66 65 63
24 28 30 31 38 44 45 44 52 58 57 57 57 57 57 57 57 60 62 63 64 65 66 67 67 67 68 66 66 66 67 67 68 69 70 71 71 72 72 71 70 70 69 71 69 67 61 63 63
20 22 27 30 34 37 43 42 46 56 58 58 57 56 56 56 56 59 61 62 63 64 66 67 67 68 68 67 67 68 68 68 67 69 70 71 71 72 72 71 71 70 70 70 70 67 64 61 64
14 20 26 28 27 32 39 38 43 49 57 58 58 57 55 55 56 56 60 62 62 64 65 67 67 68 68 69 67 67 64 64 65 67 68 70 71 72 72 72 71 72 71 70 70 69 67 64 61
14 16 15 22 28 28 29 37 38 46 53 56 57 58 59 58 57 56 58 60 61 63 65 65 67 68 68 69 68 67 66 65 67 66 68 70 71 72 72 73 72 72 71 71 71 71 69 65 62
18 21 18 14 18 25 30 30 33 40 48 53 56 58 59 59 60 60 60 60 61 62 64 64 66 67 68 68 68 68 67 66 66 66 65 66 68 70 71 72 72 73 72 72 71 72 71 68 65
21 18 17 17 11 19 28 30 31 36 43 48 54 57 58 59 60 60 61 61 61 62 63 64 66 66 67 67 68 68 68 68 67 67 65 65 65 67 70 72 72 72 73 72 72 72 71 70 66
23 21 14 15 9 6 22 27 30 33 34 44 49 53 57 59 59 60 61 62 62 63 64 64 65 66 67 67 68 68 69 66 66 67 64 65 64 65 68 71 72 72 73 72 72 71 71 71 69
24 22 21 17 24 16 8 24 30 33 34 35 38 51 55 58 59 59 60 61 62 63 64 65 66 66 66 66 67 68 69 68 66 67 68 66 67 65 68 69 70 71 72 72 72 71 71 71 71
26 25 23 22 13 14 14 15 20 30 33 35 36 46 52 56 58 59 60 61 61 62 63 64 65 66 66 66 67 67 68 69 68 68 68 67 67 67 65 69 70 70 71 72 72 71 72 72 70
26 25 25 24 22 14 12 15 24 27 34 36 38 41 46 52 57 58 60 61 62 61 62 64 64 66 66 66 66 66 67 67 68 68 68 68 68 68 68 69 69 70 70 71 72 71 71 72 71
32 28 24 24 24 25 21 16 27 31 32 34 34 41 44 49 55 57 58 60 61 61 62 62 63 64 65 66 66 67 67 68 67 68 68 69 69 69 69 69 70 70 70 70 71 70 69 70 71

GFSSGP_sfc_30mbdewp_060.txt.gz
Dewpoint
68 66 67 66 59 58 52 52 54 55 54 55 55 54 54 57 56 56 64 66 66 67 68 70 73 72 73 73 73 73 73 73 72 72 72 72 73 73 72 71 70 72 70 70 70 69 70 70 69
65 66 67 65 56 51 52 55 54 53 54 55 56 56 55 57 61 62 64 65 66 65 65 69 73 73 73 73 73 73 73 73 73 73 72 72 72 72 72 71 71 71 71 70 70 69 69 70 70
65 66 64 60 56 51 53 55 55 57 55 56 58 59 58 60 62 62 64 65 64 63 63 71 73 73 73 73 73 72 72 72 73 72 72 71 71 72 71 71 70 70 70 70 70 70 69 70 70
64 66 64 57 51 54 56 55 55 56 55 56 58 58 61 63 61 62 64 64 63 62 62 72 72 72 73 72 73 73 72 73 72 72 72 72 71 71 70 70 70 70 70 70 70 70 70 70 69
65 64 57 54 53 55 57 57 56 55 55 57 57 58 61 62 63 63 63 63 61 60 63 70 73 73 72 71 73 73 73 73 72 72 72 72 71 71 70 70 69 70 70 70 70 69 69 70 69
63 62 52 50 52 54 55 58 57 57 57 58 58 58 61 64 63 63 62 61 60 59 61 69 72 73 73 71 73 72 72 72 72 72 71 72 72 72 71 71 71 70 70 70 69 69 69 70 70
62 56 51 49 49 52 55 59 56 57 58 57 58 58 62 63 64 63 61 59 59 59 61 67 67 72 72 72 73 73 73 72 72 71 71 72 72 71 71 70 70 69 69 68 69 70 70 69 70
63 54 51 50 51 52 55 58 57 58 57 59 59 57 60 63 65 62 60 59 60 59 61 66 65 66 69 68 72 73 73 73 72 71 72 72 71 70 70 70 69 69 68 68 69 70 70 69 70
61 53 49 48 49 53 57 58 59 60 59 58 59 59 60 63 65 61 60 59 60 60 61 64 62 65 66 68 71 72 72 73 72 72 73 72 65 66 67 70 69 69 69 68 69 70 70 70 70
57 53 50 50 52 54 56 57 59 58 57 58 58 59 61 64 64 61 59 58 58 59 59 61 62 64 66 64 68 68 68 67 67 67 68 66 67 67 66 69 71 70 70 70 70 70 69 70 64
55 53 53 52 54 56 56 56 57 56 56 57 58 60 61 63 62 60 58 58 57 58 59 61 63 65 65 65 66 66 66 66 68 69 68 68 67 66 65 66 66 65 68 64 67 67 65 64 63
50 53 55 53 53 55 54 56 56 56 56 58 59 61 61 61 60 59 58 57 56 58 59 62 64 66 66 66 65 65 64 65 65 67 70 69 67 67 65 64 65 66 65 67 65 63 66 66 66
48 51 54 55 53 53 54 53 55 56 59 59 60 60 60 60 58 58 58 57 57 58 59 61 64 67 67 67 65 64 65 65 65 68 68 67 66 67 66 66 65 65 66 64 64 64 64 65 66
42 43 49 53 53 52 52 51 55 57 59 59 60 60 59 59 57 57 58 56 57 58 59 61 64 67 68 67 68 67 66 66 67 66 66 71 69 68 66 67 66 65 65 64 63 63 61 62 63
36 41 42 46 52 52 52 50 50 58 59 59 59 59 58 58 58 57 58 57 58 59 60 61 64 66 68 68 69 67 66 65 65 66 69 68 70 70 68 67 66 65 67 68 66 65 64 58 60
26 30 33 42 49 51 49 44 50 57 58 58 59 58 58 58 57 57 58 58 59 60 61 62 62 63 66 67 68 65 65 65 65 66 67 68 70 71 71 68 66 68 67 64 63 66 59 57 58
17 18 26 45 48 48 48 45 54 56 56 58 58 58 58 58 58 57 58 58 59 62 63 63 62 62 64 66 66 65 66 66 66 67 67 70 70 71 70 67 68 70 67 63 62 61 60 58 58
12 17 21 39 46 47 47 46 54 56 55 57 58 58 58 58 58 58 58 58 60 62 64 64 63 63 64 64 65 64 65 66 67 67 67 70 69 70 71 68 70 68 65 64 63 64 62 62 61
20 18 19 35 44 45 45 45 52 55 55 56 57 58 57 57 58 59 59 59 59 61 63 64 63 64 65 64 62 62 63 65 66 66 68 70 70 71 71 68 70 70 65 63 67 67 65 63 64
17 23 25 24 40 46 44 43 45 54 54 55 57 57 57 57 58 58 60 59 59 61 62 64 64 65 66 63 62 61 63 64 65 66 69 70 70 71 70 70 69 69 65 67 68 66 61 61 61
17 15 22 25 30 40 44 42 43 49 54 54 56 57 57 57 57 58 59 59 59 60 63 64 66 66 67 62 63 66 66 67 67 67 67 69 70 71 71 71 70 70 68 66 67 65 62 59 62
12 13 13 24 28 29 39 37 41 43 51 54 54 56 56 56 57 57 58 59 59 60 63 65 66 67 67 65 63 66 64 62 62 64 64 66 70 70 71 71 71 70 67 67 66 66 63 62 59
14 12 13 14 25 27 31 36 36 41 45 52 53 54 55 56 56 56 58 60 59 60 62 65 67 68 68 68 65 65 65 60 62 63 66 68 71 70 70 72 72 71 68 68 68 68 67 62 58
18 15 14 14 9 17 26 31 33 38 41 44 52 53 54 54 55 56 57 59 60 61 61 64 68 69 69 69 67 66 65 63 61 65 65 65 65 68 71 71 72 72 70 69 68 69 69 66 65
19 16 15 12 6 -1 15 25 30 34 40 42 46 51 54 56 56 56 56 57 60 61 62 63 67 69 69 68 68 66 66 67 65 66 65 63 62 63 66 71 72 71 72 71 70 72 70 70 67
21 18 13 11 7 3 2 14 24 32 36 40 44 49 53 55 56 57 57 57 58 61 62 63 65 69 69 68 69 69 69 66 66 67 64 64 62 62 64 70 70 71 71 71 71 69 69 68 69
23 20 19 13 13 9 3 4 17 27 32 36 40 44 48 51 54 57 59 60 60 60 62 64 66 68 68 67 70 70 70 68 64 67 66 64 66 63 64 66 69 69 70 70 71 69 70 70 70
27 25 19 18 13 13 13 9 4 25 30 34 36 37 44 48 53 55 58 60 61 61 61 63 64 67 67 66 68 68 68 69 68 67 68 67 65 66 64 66 67 67 68 70 71 69 70 71 70
23 24 24 20 18 14 13 11 12 14 22 32 34 37 39 48 53 55 57 59 61 61 61 62 64 65 66 66 67 67 66 67 68 67 68 69 68 67 69 67 66 66 68 69 70 70 68 70 71
28 26 24 22 21 19 18 13 17 18 19 27 33 35 37 40 48 53 55 57 59 61 61 61 63 64 65 66 68 67 67 67 66 68 68 69 69 69 69 68 68 66 66 68 70 70 67 69 69

GFSSGP_sfc_30mbdewp_063.txt.gz
Dewpoint
68 64 64 66 59 57 53 52 54 52 53 54 53 53 56 57 57 57 64 66 66 67 68 70 72 72 73 72 72 72 72 72 72 72 72 73 72 73 72 70 72 70 70 69 69 70 69 69 71
63 62 66 64 57 52 51 52 52 53 53 54 54 54 55 57 60 62 64 65 65 65 66 67 73 73 73 73 73 73 73 73 73 72 72 72 72 72 71 71 71 70 70 70 69 70 70 69 71
68 63 64 60 56 53 52 54 54 53 53 54 56 57 58 58 61 62 64 64 64 61 62 69 73 73 73 73 73 73 73 73 73 72 72 72 72 71 71 70 71 70 71 70 70 70 70 70 69
63 64 64 58 52 52 57 55 54 54 54 56 56 57 60 61 60 62 64 63 60 60 62 72 72 73 73 73 73 73 72 72 73 72 72 71 71 71 70 70 70 70 70 70 70 70 70 69 69
64 64 57 53 51 53 53 56 54 52 53 55 56 58 60 61 62 62 62 61 57 59 64 70 73 73 73 73 73 72 72 72 72 72 72 71 71 70 70 70 70 70 70 70 70 70 70 69 70
63 61 55 51 50 51 54 55 54 53 55 56 57 59 61 63 61 62 61 61 56 58 62 66 73 72 72 73 73 73 72 72 72 72 71 71 71 72 71 71 70 70 70 69 69 69 70 70 70
62 57 55 53 49 51 54 56 55 56 55 56 58 59 61 61 62 61 61 57 56 57 61 65 69 72 72 73 72 73 72 72 72 71 72 72 71 71 71 70 70 69 68 69 69 69 69 70 71
61 58 50 52 48 54 53 55 55 58 55 57 59 58 60 62 62 60 58 56 55 57 60 62 65 68 66 71 73 72 73 72 71 71 72 72 70 69 68 70 69 69 68 69 69 69 69 70 70
62 55 49 48 48 54 54 54 56 57 56 57 57 59 61 62 61 60 55 55 55 56 58 59 61 65 65 69 72 73 73 72 72 72 71 71 65 66 67 69 69 69 68 69 69 69 70 70 70
58 54 53 55 51 55 54 54 56 55 55 56 57 60 62 61 61 58 54 55 54 54 56 57 60 61 63 63 69 68 68 66 66 65 68 70 69 68 64 68 69 70 69 69 69 69 71 69 66
52 54 52 52 54 53 53 55 55 55 52 54 57 60 61 61 60 56 54 55 53 54 55 56 60 61 60 64 65 64 66 63 65 66 65 63 63 65 63 66 66 67 69 65 67 69 69 69 68
47 48 52 55 55 53 53 53 52 56 56 55 58 61 61 60 58 56 54 54 53 54 55 56 60 62 61 61 63 64 61 61 62 65 67 67 69 69 67 67 65 66 68 64 63 68 64 68 68
45 48 52 53 53 53 56 50 52 54 55 57 58 60 60 59 58 56 55 54 54 54 55 57 61 63 64 65 66 61 60 60 63 66 67 70 69 66 67 64 68 66 65 65 61 60 62 64 63
38 42 48 52 51 52 50 49 50 54 56 57 58 59 60 58 58 56 55 54 54 54 55 59 62 64 65 66 66 62 60 67 63 66 66 69 70 68 65 66 65 68 67 68 65 64 63 63 67
34 37 40 45 52 51 49 51 47 55 56 58 58 58 58 58 57 56 56 54 54 55 56 59 62 64 65 68 65 63 62 64 65 68 69 68 70 68 68 67 68 64 66 68 64 60 57 59 63
30 32 34 40 46 50 49 46 47 55 56 57 57 57 58 57 56 56 56 54 55 55 56 59 60 63 65 66 66 64 62 63 64 64 67 68 69 69 70 65 66 64 67 67 67 60 63 55 58
18 24 28 32 38 45 48 48 50 53 54 56 56 57 57 57 56 57 56 55 56 56 57 58 60 62 65 66 66 66 65 66 65 67 67 69 69 70 70 66 69 69 67 63 62 61 64 58 54
11 16 19 27 43 45 47 50 58 54 52 55 56 56 56 56 56 57 56 56 56 57 59 60 60 63 66 66 66 64 65 65 66 67 70 69 69 69 70 69 68 67 63 66 66 60 65 63 61
10 10 17 24 46 44 44 48 55 51 51 54 56 55 56 56 57 57 56 56 56 58 60 61 62 66 65 65 64 62 62 63 65 65 67 68 68 69 70 70 69 68 65 68 63 62 61 57 64
12 13 15 20 33 45 44 45 49 50 50 53 55 55 55 56 57 56 56 56 56 58 60 63 64 67 66 64 64 62 63 62 62 62 67 68 68 69 68 69 69 68 66 66 66 66 64 61 61
13 13 15 22 23 39 42 44 45 56 50 52 54 56 54 55 56 57 57 56 56 58 60 64 66 67 67 65 64 64 64 64 62 64 66 68 68 69 69 70 70 68 68 66 67 66 65 63 59
15 14 13 15 24 25 37 38 47 49 49 50 53 54 55 54 56 57 58 57 56 57 60 64 67 68 68 67 62 64 62 60 60 63 62 66 68 68 69 70 70 70 67 69 67 65 65 64 58
16 15 11 9 12 24 28 32 43 47 51 48 50 53 54 55 55 56 58 58 57 57 60 62 68 69 68 68 65 64 65 61 61 60 67 66 70 68 68 70 70 70 68 67 67 67 67 61 62
18 15 14 12 9 8 22 27 34 40 42 45 49 51 53 54 55 55 57 58 59 58 59 62 68 70 70 70 68 67 66 64 58 60 64 63 66 68 68 69 71 70 68 69 68 68 68 69 63
20 18 14 12 9 6 6 21 28 35 43 44 46 49 52 53 55 55 56 57 59 59 60 62 68 70 71 70 68 68 68 68 67 66 62 62 60 61 69 70 70 71 71 69 69 70 69 68 66
19 18 15 13 9 8 6 3 19 30 37 43 45 48 50 52 53 55 56 57 59 60 61 63 67 70 71 70 69 69 69 64 63 65 62 61 59 60 70 70 69 70 71 69 70 70 69 70 68
21 19 18 15 14 11 7 4 3 20 29 41 49 46 49 51 52 53 55 56 58 60 62 63 66 70 71 69 71 71 70 66 62 65 68 65 64 61 61 65 69 68 68 69 70 68 70 69 70
22 22 18 16 14 13 11 9 5 5 19 28 36 39 45 50 51 53 55 56 57 59 61 63 65 69 70 69 71 71 70 70 68 69 69 67 66 67 64 65 65 68 68 68 71 69 69 70 69
19 22 23 21 16 14 14 12 14 9 11 24 30 37 41 47 49 51 53 56 57 58 59 61 64 66 68 69 70 69 69 68 69 70 70 70 69 69 69 68 67 67 68 69 71 71 68 70 70
12 14 13 21 21 17 16 14 16 15 13 23 29 33 36 40 45 49 51 55 58 59 59 60 61 63 66 68 69 69 70 68 68 69 69 71 71 71 70 70 69 68 67 69 71 69 67 68 68

GFSSGP_sfc_30mbdewp_069.txt.gz
Dewpoint
69 69 66 64 58 58 54 55 53 52 54 56 58 58 58 60 56 52 67 67 68 70 71 72 73 73 73 73 73 73 73 73 72 72 72 72 71 72 71 71 71 69 71 70 70 71 71 71 72
67 64 64 64 56 53 53 59 56 54 55 57 59 59 58 58 61 64 65 67 68 70 71 72 72 73 73 73 73 73 73 73 73 73 72 72 71 71 71 71 71 70 70 70 70 70 71 72 72
66 64 62 60 56 51 54 58 57 55 57 58 58 59 59 59 62 63 66 67 68 69 70 71 72 73 72 73 73 73 73 73 72 72 72 72 71 71 70 71 71 71 70 70 71 70 71 71 71
66 65 63 56 55 54 57 58 58 57 58 59 59 59 60 62 63 65 66 67 67 69 71 74 73 73 73 73 73 73 73 73 72 72 72 72 71 71 71 71 71 70 70 70 70 69 70 69 70
66 63 58 56 57 56 56 57 58 56 58 59 60 59 60 63 64 64 65 64 67 69 73 74 74 74 73 73 73 73 73 73 72 72 72 71 71 71 71 70 71 70 71 71 70 70 70 69 69
61 62 56 53 55 54 58 59 57 57 58 60 60 60 61 63 63 63 63 64 68 69 72 73 73 73 73 73 73 73 72 72 72 72 71 71 71 71 70 70 71 70 70 70 70 70 70 69 69
60 59 56 54 54 56 59 55 56 58 57 58 60 59 61 61 62 62 62 65 66 69 72 72 73 73 73 73 72 73 73 72 72 72 73 73 72 72 71 70 70 70 69 70 70 70 70 70 69
61 60 55 56 56 54 60 61 57 58 57 59 60 59 59 61 62 61 62 63 65 69 71 70 72 73 73 73 72 73 73 73 72 72 72 72 71 70 70 71 70 69 69 69 70 70 71 70 70
59 56 54 56 52 53 57 59 57 61 59 59 60 60 61 61 61 59 58 62 64 67 68 68 70 72 72 73 73 73 73 72 73 72 71 71 70 70 71 70 70 69 69 70 70 70 70 70 70
55 55 54 55 57 56 57 59 57 58 59 59 59 61 61 61 61 58 59 60 62 65 66 66 68 71 71 71 73 73 72 72 72 71 70 70 70 69 70 71 70 69 69 70 68 70 71 71 70
52 51 54 55 59 63 59 61 64 57 58 59 59 60 61 61 60 55 58 58 60 63 63 65 68 70 69 70 72 72 72 71 71 70 70 71 69 68 70 71 70 70 70 69 69 68 67 68 69
48 49 50 55 58 59 61 64 61 62 61 61 60 60 60 60 60 54 56 57 57 59 64 65 67 69 68 70 71 71 70 71 69 68 70 68 65 66 69 69 70 70 69 69 68 68 68 67 67
45 45 47 50 56 59 63 60 54 60 62 61 60 60 60 59 59 54 53 54 56 59 64 65 66 66 66 69 70 69 69 69 69 69 69 70 69 67 70 69 67 68 69 69 69 68 67 67 67
42 41 42 50 55 58 58 61 58 59 62 61 60 59 59 59 59 54 54 53 55 60 61 62 67 66 67 66 66 66 68 68 69 67 61 66 69 70 68 68 67 67 70 69 69 69 68 67 66
37 29 30 40 55 55 60 60 60 64 62 60 59 59 58 58 58 55 55 52 54 60 60 63 66 65 68 67 66 67 66 67 70 69 66 69 69 70 69 69 68 66 69 66 67 69 69 66 65
33 25 25 29 41 52 55 55 62 64 63 59 59 59 58 58 57 57 55 53 57 61 61 62 64 68 67 65 70 68 67 66 70 71 71 71 70 69 69 68 67 70 70 68 63 65 66 65 66
31 25 24 26 31 40 50 55 62 63 62 61 58 58 58 58 57 57 54 54 58 62 62 60 62 66 66 66 68 67 65 69 70 70 70 70 71 71 69 68 68 68 69 68 67 63 65 63 64
28 22 21 21 28 32 50 57 57 58 61 61 59 58 58 58 58 57 54 55 60 62 62 62 63 66 67 67 66 68 68 69 71 71 69 72 71 71 70 70 69 68 66 65 68 61 64 62 61
26 25 22 19 23 27 47 56 54 53 55 61 61 58 58 59 59 57 55 56 61 62 61 64 65 66 68 67 66 67 67 67 69 71 71 71 72 67 64 69 71 70 65 64 67 68 61 60 63
24 23 23 22 18 40 53 53 54 53 58 60 61 58 57 58 58 57 55 56 59 62 61 64 66 67 69 68 68 67 66 68 67 67 70 71 72 70 69 69 71 68 67 68 67 64 63 62 61
21 22 21 20 17 41 52 52 53 54 55 59 62 61 58 58 57 57 55 57 59 61 62 63 68 68 69 67 68 69 69 69 68 68 68 71 72 71 71 70 70 69 69 68 68 66 62 61 63
17 18 18 15 13 12 36 37 51 51 53 57 61 60 57 57 57 57 55 56 59 60 63 64 69 68 69 68 65 67 65 64 66 68 70 71 70 72 71 71 70 71 69 69 69 69 65 64 62
17 19 18 17 15 13 12 14 49 51 51 53 55 54 56 57 56 56 57 55 59 61 63 65 70 68 67 69 66 66 65 66 67 68 69 71 71 71 72 71 71 70 69 69 69 69 69 67 66
18 17 17 16 17 15 14 12 48 49 50 51 52 51 57 57 57 57 57 57 59 62 62 66 69 67 67 67 69 65 65 65 66 67 68 69 71 72 72 73 71 71 71 70 70 70 69 69 69
18 16 15 14 13 14 15 12 10 51 52 51 50 55 56 57 57 57 57 57 57 61 63 65 67 69 67 67 67 69 66 65 68 68 69 69 70 70 71 72 71 72 71 71 71 71 71 71 68
20 17 16 13 14 15 17 13 13 42 53 53 55 54 56 60 59 58 57 57 57 61 63 64 66 67 68 66 66 68 69 66 67 69 69 69 69 69 70 72 70 71 71 71 71 70 71 71 71
23 22 20 16 17 16 17 17 16 16 46 52 52 53 60 60 59 60 61 57 58 60 62 65 66 66 68 68 65 67 70 66 67 67 69 69 68 69 69 73 71 71 72 72 71 70 70 71 71
19 20 16 19 14 15 17 17 19 22 32 50 49 56 56 57 60 62 64 64 60 58 62 63 67 67 68 68 67 66 68 70 68 67 67 69 66 69 71 73 72 73 72 71 72 70 71 70 70
15 16 17 19 20 18 14 16 20 20 25 37 50 56 54 57 59 63 62 64 63 62 60 63 67 67 68 68 69 66 65 70 70 67 66 69 68 70 72 72 73 73 73 72 71 70 70 70 70
15 13 12 19 19 22 23 23 24 21 22 43 49 56 55 58 61 60 62 59 60 60 61 61 64 67 68 69 68 69 66 67 68 69 66 67 68 69 72 72 72 71 71 72 73 70 70 71 69

GFSSGP_sfc_30mbdewp_072.txt.gz
Dewpoint
70 70 68 64 57 58 54 56 57 54 54 55 57 57 58 60 57 51 67 68 69 68 71 73 73 73 72 73 73 72 73 72 72 73 72 72 72 72 71 70 71 70 71 71 71 71 71 72 72
69 67 65 64 57 52 54 59 54 55 58 59 59 59 59 58 63 65 66 68 69 70 72 73 74 73 72 73 73 73 73 72 73 72 72 71 72 72 71 70 69 71 71 69 71 71 71 72 72
67 64 62 60 56 51 52 58 56 58 59 58 58 60 60 61 64 65 67 69 70 71 72 72 73 73 72 72 72 73 73 72 72 72 72 71 72 71 71 71 71 71 71 70 70 71 71 71 70
65 65 64 56 54 55 56 57 57 58 59 60 59 58 61 63 64 66 68 69 70 70 71 73 73 72 72 73 73 72 72 72 72 72 72 71 71 71 71 71 71 70 70 70 69 70 70 70 71
66 63 58 56 56 55 55 58 60 57 59 59 59 59 61 64 66 67 68 69 70 70 72 73 74 73 73 72 72 73 73 72 72 72 72 72 71 71 71 71 71 71 70 70 70 69 69 70 71
62 62 56 53 53 55 56 58 59 59 59 59 60 60 61 65 65 66 67 69 71 72 73 73 73 73 73 73 73 73 73 72 72 72 71 71 71 71 70 71 70 70 70 70 70 69 69 69 69
60 59 56 55 55 56 58 61 59 59 59 59 60 59 61 63 65 65 67 69 71 73 72 73 73 73 73 73 73 72 73 73 72 72 72 71 71 71 71 71 70 70 70 70 70 69 69 69 68
62 60 56 55 55 52 57 61 59 59 58 61 61 58 58 62 64 66 67 68 70 72 72 73 72 73 73 73 73 73 73 73 72 73 72 72 71 71 70 71 70 69 69 70 70 70 70 69 69
61 57 54 55 52 53 58 60 61 62 60 60 61 60 60 63 63 64 66 68 70 71 71 72 72 73 73 72 73 73 73 72 72 72 71 71 70 70 70 71 70 70 70 70 70 70 70 69 69
59 54 54 56 56 58 59 60 62 60 59 58 61 60 60 62 62 63 64 66 67 68 69 71 72 72 72 72 73 73 73 73 72 72 71 70 70 70 70 71 70 70 70 70 71 71 70 71 69
55 54 54 56 58 61 61 62 64 61 58 60 60 60 60 61 60 62 63 64 66 67 67 69 71 71 72 72 73 72 72 72 70 70 70 70 70 71 71 71 70 70 70 69 68 68 68 68 69
49 51 53 53 60 62 61 63 59 63 63 62 61 60 60 60 58 61 61 63 66 66 65 68 70 70 69 71 72 72 71 71 70 70 71 68 68 69 69 70 69 69 69 68 67 67 67 68 68
47 47 49 49 58 62 62 58 59 61 64 63 61 60 60 60 59 59 60 62 65 64 65 66 69 69 68 71 71 71 70 71 70 70 70 66 66 68 69 69 68 68 70 69 67 67 66 67 67
45 44 42 40 61 62 59 59 58 61 63 62 61 60 60 60 59 58 58 59 63 63 64 66 67 68 69 70 70 69 69 69 70 68 69 69 70 68 69 68 65 66 69 68 68 67 68 67 66
43 37 33 54 59 58 60 58 59 63 62 61 60 60 60 60 60 56 57 57 60 64 65 65 66 67 67 68 67 67 68 69 69 66 66 68 70 70 67 68 68 67 68 69 68 68 68 68 65
31 31 25 41 57 59 56 54 62 63 61 60 59 59 59 59 59 56 54 58 62 63 63 66 66 67 67 68 68 67 68 69 69 67 68 69 71 70 68 68 67 69 68 67 67 68 67 66 66
31 30 30 26 52 58 56 57 61 63 62 60 59 58 58 59 58 57 54 60 60 61 65 65 66 66 66 69 67 66 67 69 70 70 70 69 70 70 69 68 69 68 69 67 63 66 65 63 64
28 29 26 23 23 53 55 57 60 64 62 60 59 58 57 58 58 57 56 60 60 60 63 65 66 65 66 68 67 67 67 69 70 70 70 71 71 70 69 68 68 69 67 68 65 64 65 63 63
29 26 25 26 26 23 49 57 59 61 60 61 60 59 57 58 59 57 55 60 60 60 61 64 65 65 66 67 67 66 67 68 70 70 70 71 71 69 69 70 70 69 65 66 64 65 61 62 63
29 27 25 24 26 46 56 57 59 60 61 61 60 59 58 58 58 59 54 60 60 60 61 62 65 65 66 67 66 67 67 68 70 70 71 71 70 66 68 69 70 67 65 68 66 64 61 61 61
30 27 26 23 39 53 53 53 54 54 59 62 62 61 60 58 58 59 54 60 60 60 62 63 65 65 67 67 67 67 68 68 68 68 69 71 72 69 70 70 70 69 68 67 65 64 60 59 62
28 26 21 20 17 14 44 42 51 53 56 61 61 60 61 60 58 59 55 58 61 60 63 64 66 66 67 67 66 66 67 66 66 67 68 70 72 70 70 69 71 69 69 68 68 68 63 61 61
27 27 21 18 17 16 24 14 39 52 53 58 61 59 60 60 58 58 56 56 60 61 61 66 67 67 68 67 65 66 65 66 67 67 68 69 71 71 71 70 70 70 68 68 69 70 67 64 63
24 21 18 18 17 13 16 14 35 50 51 54 60 61 61 59 58 58 57 57 58 61 61 67 67 66 68 67 65 65 66 65 67 67 69 69 70 71 71 71 71 70 69 69 68 69 69 69 68
19 17 14 13 13 12 17 15 14 43 51 52 56 60 59 58 58 57 57 57 58 60 61 65 67 66 67 67 67 65 65 65 66 67 68 68 70 70 71 72 71 70 70 70 70 70 69 69 68
22 17 15 12 12 15 18 14 14 23 43 50 52 57 58 57 59 58 57 57 59 59 61 63 66 66 66 67 67 68 66 65 66 68 68 68 69 70 71 72 71 70 70 70 70 70 70 71 70
20 21 21 18 18 15 17 18 20 21 33 51 51 54 57 59 58 58 60 58 60 60 61 63 65 65 66 65 65 67 69 67 66 68 69 69 68 69 70 72 71 71 71 71 71 70 69 71 70
16 17 16 18 15 14 17 17 17 21 37 43 52 52 56 61 60 60 61 61 61 61 62 62 64 65 66 66 65 64 66 69 67 67 67 69 69 69 69 72 71 70 71 71 71 70 70 70 70
16 15 13 19 19 18 17 17 30 36 43 46 51 53 54 60 60 61 63 63 63 62 62 63 63 64 67 67 66 64 64 67 69 67 66 67 69 69 69 71 71 70 71 71 71 70 69 70 69
17 19 17 15 12 19 22 20 30 37 41 49 53 50 54 60 59 62 61 62 63 63 62 62 64 64 65 67 67 65 64 65 68 69 66 67 68 69 71 72 71 71 72 71 70 69 69 69 69

GFSSGP_sfc_30mbdewp_075.txt.gz
Dewpoint
70 70 68 64 56 57 51 50 58 56 54 56 54 55 56 60 57 51 65 66 67 67 71 72 73 72 72 72 73 73 72 71 72 73 72 72 71 71 70 72 70 70 71 71 71 71 72 72 72
70 68 65 64 56 51 53 57 57 56 55 55 60 60 59 59 64 64 65 67 66 70 72 73 73 72 72 73 72 73 72 72 73 72 71 72 71 71 69 70 71 70 70 71 71 71 71 71 71
69 66 62 60 56 50 52 56 57 59 57 58 60 61 60 61 64 63 67 67 68 71 72 73 73 72 73 73 73 73 72 73 72 72 71 72 71 71 71 70 71 71 70 71 71 70 71 70 71
64 64 64 57 54 55 54 58 58 58 59 60 60 59 62 64 63 67 68 67 70 71 72 73 73 72 72 72 72 73 72 72 72 72 71 72 71 71 71 71 70 71 70 70 70 70 70 70 70
66 64 58 56 56 54 56 59 61 59 59 59 59 60 61 64 67 68 68 68 70 70 72 73 73 72 72 73 73 72 72 72 72 72 71 71 71 71 71 70 71 70 69 69 70 70 70 71 70
63 62 56 53 54 56 56 60 61 60 60 60 60 60 62 66 67 68 68 69 70 71 72 73 73 73 72 72 73 72 72 72 72 72 72 71 71 71 71 71 70 70 69 69 69 69 70 70 70
61 59 55 55 54 56 58 61 60 59 59 59 60 59 63 65 67 68 69 70 71 73 73 73 73 73 73 73 73 72 72 72 72 72 71 71 71 70 71 71 70 70 69 69 69 70 70 69 69
62 60 55 55 56 54 59 61 63 60 59 61 60 59 60 64 66 68 69 71 72 72 73 73 73 73 72 73 72 72 73 72 72 72 71 70 71 71 71 71 70 70 69 69 69 70 70 69 70
62 57 54 54 53 55 60 61 62 64 60 59 62 60 63 65 67 67 68 69 70 71 72 72 72 73 72 73 71 73 73 72 72 71 72 72 71 70 70 71 70 70 70 69 69 69 69 69 70
59 55 54 56 55 58 60 62 61 63 60 59 59 61 64 65 66 66 67 67 68 70 71 72 72 72 72 72 73 73 72 72 72 72 71 70 70 70 70 71 70 70 71 70 69 69 70 69 68
58 55 56 56 59 59 60 62 63 61 59 60 58 61 62 64 64 65 66 67 67 69 71 71 72 72 72 72 73 72 72 72 71 71 70 70 70 71 71 71 70 70 70 69 69 69 68 68 68
52 52 57 55 60 60 59 60 61 62 63 64 59 61 62 62 63 63 64 66 67 68 70 70 71 72 71 72 72 72 71 71 70 69 70 69 69 70 70 69 69 69 69 67 67 68 67 68 68
49 49 48 49 52 62 61 58 57 59 64 65 60 61 61 61 62 63 64 65 67 66 67 69 71 70 70 72 72 71 71 71 70 70 70 68 68 68 68 69 67 67 69 68 67 67 67 67 67
47 46 46 44 59 61 58 59 58 61 65 65 61 60 60 60 61 61 63 64 66 65 65 68 70 69 69 71 71 70 70 70 70 70 69 67 67 68 69 68 67 67 68 69 68 67 67 67 66
44 43 36 58 61 59 57 55 58 62 64 64 60 59 60 60 60 60 61 64 65 64 65 67 69 68 69 70 70 69 69 70 69 68 69 69 69 68 69 68 65 66 68 68 68 68 68 67 66
32 30 28 57 58 58 56 53 61 63 63 61 60 59 59 60 59 59 60 62 64 64 64 66 67 68 68 68 69 68 69 69 69 67 67 69 70 69 67 68 67 67 67 67 67 68 67 65 65
30 31 30 29 57 58 57 55 59 64 60 61 60 59 59 60 59 58 58 60 62 64 65 65 66 67 67 68 68 67 68 69 69 68 67 69 70 70 67 67 68 69 68 66 65 68 65 64 65
29 29 27 25 52 54 56 56 60 62 61 60 59 58 58 59 59 56 57 58 62 64 65 65 67 67 67 68 67 67 67 69 70 69 69 69 70 70 68 68 68 69 67 66 64 65 65 64 64
32 29 27 27 27 25 47 54 58 61 61 60 59 58 58 58 59 55 57 59 62 63 64 65 66 65 67 66 66 66 66 68 70 70 70 70 71 70 69 68 69 68 65 67 63 65 63 62 63
33 30 28 27 39 40 56 56 58 60 60 61 60 59 58 58 59 55 58 60 60 63 63 65 65 65 67 66 67 66 67 68 69 70 70 71 71 69 69 69 69 69 65 67 66 63 61 61 62
31 29 28 27 32 55 54 54 57 58 60 61 62 61 59 57 58 55 58 60 60 62 63 65 64 65 66 66 67 67 68 68 68 69 70 71 70 67 68 69 70 67 65 67 65 63 59 58 61
29 30 29 25 18 15 49 45 53 54 56 58 61 61 60 57 57 57 58 59 59 60 62 65 65 65 66 67 65 66 66 66 67 67 68 71 72 69 69 69 70 69 68 67 66 65 62 60 58
29 30 27 23 17 16 28 26 44 53 53 57 60 61 61 61 58 58 56 59 60 59 61 63 65 65 66 66 65 65 66 66 66 67 67 69 71 71 70 70 70 69 68 68 68 68 64 63 62
27 25 20 19 17 13 15 15 25 51 52 54 60 61 61 61 61 58 56 59 60 60 61 63 64 65 66 66 65 65 65 66 66 66 66 68 69 71 71 70 70 70 69 68 68 69 68 67 66
20 18 15 13 13 13 17 14 16 41 50 52 55 60 61 60 60 59 57 57 59 60 61 63 65 64 66 66 65 65 65 65 65 66 67 67 69 70 71 71 70 70 69 69 68 69 69 68 67
20 18 15 11 12 14 18 13 16 22 31 45 53 57 60 60 61 59 58 55 58 60 60 64 65 64 66 66 66 65 65 65 65 66 67 68 69 69 70 71 71 71 70 70 69 70 69 69 68
19 20 21 17 18 15 16 18 21 38 44 49 51 55 60 61 60 60 59 56 57 60 60 63 65 64 65 66 66 66 65 65 65 67 68 68 69 70 70 71 71 71 70 70 70 70 69 70 70
16 16 16 18 15 14 17 22 31 38 44 49 52 53 57 60 59 59 60 58 58 59 60 61 64 65 65 65 66 66 66 67 66 66 67 69 69 69 70 71 71 71 71 70 70 70 69 69 69
17 17 16 18 20 16 15 24 28 39 45 52 54 55 54 58 59 59 60 60 60 59 59 61 62 64 65 65 65 65 65 68 68 66 66 67 69 69 69 70 71 70 70 71 70 70 69 69 69
17 16 17 15 14 16 22 20 21 23 36 50 55 56 56 58 60 60 61 62 62 60 60 60 62 63 64 65 65 64 64 65 67 67 67 67 67 68 69 69 70 71 70 70 70 70 70 69 68